Location: Linz
(48.3300°N, 14.3000°E)
Time: 04:05:01
(UTC+02:00)

YUBILEINY - Visible Passes

Search period start: 24 April 2019 00:00
Search period end: 04 May 2019 00:00
Orbit: 1479 x 1507 km, 82.5° (Epoch: 23 April)

Date Brightness Start Highest point End Pass type
(mag) Time Alt. Az. Time Alt. Az. Time Alt. Az.
24 Apr ? 00:58:53 16° WSW 01:04:47 31° WNW 01:12:27 10° N visible
24 Apr ? 22:13:21 26° SE 22:17:54 44° E 22:26:04 10° NNE visible
25 Apr ? 00:09:13 24° SW 00:14:36 51° WNW 00:23:12 10° N visible
25 Apr ? 02:10:13 10° WNW 02:14:05 13° NW 02:17:58 10° NNW visible
25 Apr ? 21:23:40 14° ESE 21:28:59 25° ENE 21:35:44 10° NNE visible
25 Apr ? 23:19:31 29° SSW 23:24:46 82° W 23:33:42 10° N visible
26 Apr ? 01:16:38 10° WSW 01:23:09 22° NW 01:29:42 10° N visible
26 Apr ? 20:36:32 10° E 20:40:25 14° ENE 20:44:19 10° NE visible
26 Apr ? 22:29:47 25° SSE 22:35:18 63° E 22:43:59 10° NNE visible
27 Apr ? 00:25:38 13° SW 00:32:39 36° WNW 00:40:40 10° N visible
27 Apr ? 21:40:01 16° SE 21:46:09 37° E 21:53:59 10° NNE visible
27 Apr ? 23:35:51 18° SSW 23:42:34 59° WNW 23:51:20 10° N visible
28 Apr ? 01:36:53 10° W 01:41:43 15° NW 01:46:36 10° NNW visible
28 Apr ? 20:51:13 10° ESE 20:57:21 22° ENE 21:03:28 10° NNE visible
28 Apr ? 22:46:01 19° S 22:52:52 87° E 23:01:46 10° N visible
29 Apr ? 00:43:54 10° WSW 00:50:55 26° WNW 00:58:00 10° N visible
29 Apr ? 21:56:08 15° SSE 22:03:29 54° E 22:11:59 10° NNE visible
29 Apr ? 23:52:20 10° SW 00:00:33 41° WNW 00:08:51 10° N visible
30 Apr ? 01:58:59 10° NW 02:00:33 10° NW 02:02:08 10° NNW visible
30 Apr ? 21:07:00 10° SE 21:14:26 32° E 21:21:53 10° NNE visible
30 Apr ? 23:02:00 11° SSW 23:10:36 68° WNW 23:19:27 10° N visible
01 May ? 01:03:47 10° W 01:09:24 18° NW 01:15:04 10° N visible
01 May ? 22:12:11 10° S 22:20:58 77° E 22:29:50 10° NNE visible
02 May ? 00:11:18 10° WSW 00:18:45 29° WNW 00:26:15 10° N visible
02 May ? 21:23:28 10° SSE 21:31:42 46° E 21:39:58 10° NNE visible
02 May ? 23:20:04 10° SW 23:28:30 48° WNW 23:37:01 10° N visible
03 May ? 01:24:45 10° WNW 01:28:08 12° NW 01:31:31 10° NNW visible
03 May ? 22:29:48 10° SSW 22:38:38 78° W 22:47:33 10° N visible
